Time,TemperatureF,DewpointF,PressureIn,WindDirection,WindDirectionDegrees,WindSpeedMPH,WindSpeedGustMPH,Humidity,HourlyPrecipIn,Conditions,Clouds,dailyrainin,SoftwareType,DateUTC
2013-10-18 00:01:00,50.5,48.8,29.99,WSW,255,0.0,0.0,94,0.00,,,0.26,Wunderground v.1.15,2013-10-18 04:01:00,
2013-10-18 00:03:00,50.5,48.8,29.99,WSW,255,0.0,0.0,94,0.00,,,0.26,Wunderground v.1.15,2013-10-18 04:03:00,
2013-10-18 00:04:00,50.5,48.8,29.99,WSW,255,0.0,0.0,94,0.00,,,0.26,Wunderground v.1.15,2013-10-18 04:04:00,
2013-10-18 00:05:00,50.5,48.8,29.99,WSW,255,0.0,0.0,94,0.00,,,0.26,Wunderground v.1.15,2013-10-18 04:05:00,
2013-10-18 00:06:00,50.5,48.8,29.99,WSW,255,0.0,0.0,94,0.00,,,0.26,Wunderground v.1.15,2013-10-18 04:06:00,
2013-10-18 00:10:00,50.5,48.8,29.99,WSW,255,0.0,0.0,94,0.00,,,0.26,Wunderground v.1.15,2013-10-18 04:10:00,
2013-10-18 00:15:00,50.5,48.6,29.99,WSW,255,0.0,0.0,93,0.00,,,0.26,Wunderground v.1.15,2013-10-18 04:15:00,
2013-10-18 00:21:00,50.5,48.6,29.99,WSW,255,0.0,0.0,93,0.00,,,0.26,Wunderground v.1.15,2013-10-18 04:21:00,
2013-10-18 00:26:00,50.4,48.5,29.99,WSW,255,0.0,0.0,93,0.00,,,0.26,Wunderground v.1.15,2013-10-18 04:26:00,
2013-10-18 00:31:00,50.2,48.3,29.99,WSW,255,0.0,0.0,93,0.00,,,0.26,Wunderground v.1.15,2013-10-18 04:31:00,
2013-10-18 00:37:00,50.1,48.2,30.00,WSW,255,0.0,0.0,93,0.00,,,0.26,Wunderground v.1.15,2013-10-18 04:37:00,
2013-10-18 00:42:00,50.1,48.2,30.00,WSW,255,0.0,0.0,93,0.00,,,0.26,Wunderground v.1.15,2013-10-18 04:42:00,
2013-10-18 00:48:00,49.9,48.0,30.00,WSW,255,0.0,0.0,93,0.00,,,0.26,Wunderground v.1.15,2013-10-18 04:48:00,
2013-10-18 00:53:00,49.8,47.9,30.00,WSW,255,0.0,0.0,93,0.00,,,0.26,Wunderground v.1.15,2013-10-18 04:53:00,
2013-10-18 01:01:00,49.6,47.9,30.00,WSW,255,0.0,0.0,94,0.00,,,0.26,Wunderground v.1.15,2013-10-18 05:01:00,
2013-10-18 01:06:00,49.5,47.8,29.99,WSW,255,0.0,0.0,94,0.00,,,0.26,Wunderground v.1.15,2013-10-18 05:06:00,
2013-10-18 01:12:00,49.2,47.5,29.99,WSW,255,0.0,0.0,94,0.00,,,0.26,Wunderground v.1.15,2013-10-18 05:12:00,
2013-10-18 01:17:00,49.2,47.5,29.99,WSW,255,0.0,0.0,94,0.00,,,0.26,Wunderground v.1.15,2013-10-18 05:17:00,
2013-10-18 01:23:00,49.1,47.7,29.99,WSW,255,0.0,0.0,95,0.00,,,0.26,Wunderground v.1.15,2013-10-18 05:23:00,
2013-10-18 01:28:00,49.1,47.7,29.99,WSW,255,0.0,0.0,95,0.00,,,0.26,Wunderground v.1.15,2013-10-18 05:28:00,
2013-10-18 01:34:00,49.1,47.7,29.99,WSW,255,0.0,0.0,95,0.00,,,0.26,Wunderground v.1.15,2013-10-18 05:34:00,
2013-10-18 01:39:00,49.2,47.8,29.99,WSW,255,0.0,0.0,95,0.00,,,0.00,Wunderground v.1.15,2013-10-18 05:39:00,
2013-10-18 01:45:00,49.1,47.7,29.99,WSW,255,0.0,0.0,95,0.00,,,0.00,Wunderground v.1.15,2013-10-18 05:45:00,
2013-10-18 01:50:00,49.2,47.8,29.99,WSW,255,0.0,0.0,95,0.00,,,0.00,Wunderground v.1.15,2013-10-18 05:50:00,
2013-10-18 01:55:00,49.2,47.8,29.99,WSW,255,0.0,0.0,95,0.00,,,0.00,Wunderground v.1.15,2013-10-18 05:55:00,
2013-10-18 02:01:00,49.2,47.8,29.99,WSW,255,0.0,0.0,95,0.00,,,0.00,Wunderground v.1.15,2013-10-18 06:01:00,
2013-10-18 02:06:00,49.2,47.5,29.99,WSW,255,0.0,0.0,94,0.00,,,0.00,Wunderground v.1.15,2013-10-18 06:06:00,
2013-10-18 02:12:00,49.2,47.5,29.99,WSW,255,0.0,0.0,94,0.00,,,0.00,Wunderground v.1.15,2013-10-18 06:12:00,
2013-10-18 02:17:00,49.2,47.5,29.99,WSW,255,0.0,0.0,94,0.00,,,0.00,Wunderground v.1.15,2013-10-18 06:17:00,
2013-10-18 02:23:00,49.4,47.7,29.99,WSW,255,0.0,0.0,94,0.00,,,0.00,Wunderground v.1.15,2013-10-18 06:23:00,
2013-10-18 02:28:00,49.4,47.5,29.99,WSW,255,0.0,0.0,93,0.00,,,0.00,Wunderground v.1.15,2013-10-18 06:28:00,
2013-10-18 02:34:00,49.4,47.5,29.99,WSW,255,0.0,0.0,93,0.00,,,0.00,Wunderground v.1.15,2013-10-18 06:34:00,
2013-10-18 02:39:00,49.4,47.5,29.99,WSW,255,0.0,0.0,93,0.00,,,0.00,Wunderground v.1.15,2013-10-18 06:39:00,
2013-10-18 02:44:00,49.4,47.5,29.99,WSW,255,0.0,0.0,93,0.00,,,0.00,Wunderground v.1.15,2013-10-18 06:44:00,
2013-10-18 02:50:00,49.4,47.2,29.99,WSW,255,0.0,0.0,92,0.00,,,0.00,Wunderground v.1.15,2013-10-18 06:50:00,
2013-10-18 02:55:00,49.4,47.2,30.00,WSW,255,0.0,0.0,92,0.00,,,0.00,Wunderground v.1.15,2013-10-18 06:55:00,
2013-10-18 03:01:00,49.4,47.2,30.00,WSW,255,0.0,0.0,92,0.00,,,0.00,Wunderground v.1.15,2013-10-18 07:01:00,
2013-10-18 03:06:00,49.4,47.2,30.00,WSW,255,0.0,0.0,92,0.00,,,0.00,Wunderground v.1.15,2013-10-18 07:06:00,
2013-10-18 03:11:00,49.2,47.0,30.00,WSW,255,0.0,0.0,92,0.00,,,0.00,Wunderground v.1.15,2013-10-18 07:11:00,
2013-10-18 03:17:00,49.1,46.9,30.00,WSW,255,0.0,0.0,92,0.00,,,0.00,Wunderground v.1.15,2013-10-18 07:17:00,
2013-10-18 03:22:00,49.1,46.9,30.00,WSW,255,0.0,0.0,92,0.00,,,0.00,Wunderground v.1.15,2013-10-18 07:22:00,
2013-10-18 03:28:00,48.9,46.7,30.00,WSW,255,0.0,1.0,92,0.00,,,0.00,Wunderground v.1.15,2013-10-18 07:28:00,
2013-10-18 03:33:00,48.9,46.7,30.00,WSW,255,0.0,0.0,92,0.00,,,0.00,Wunderground v.1.15,2013-10-18 07:33:00,
2013-10-18 03:39:00,48.9,46.7,30.00,WSW,255,0.0,0.0,92,0.00,,,0.00,Wunderground v.1.15,2013-10-18 07:39:00,
2013-10-18 03:44:00,48.9,46.4,30.00,WSW,255,0.0,0.0,91,0.00,,,0.00,Wunderground v.1.15,2013-10-18 07:44:00,
2013-10-18 03:49:00,48.9,46.4,30.00,WSW,255,0.0,0.0,91,0.00,,,0.00,Wunderground v.1.15,2013-10-18 07:49:00,
2013-10-18 03:55:00,48.9,46.4,30.00,WSW,255,0.0,0.0,91,0.00,,,0.00,Wunderground v.1.15,2013-10-18 07:55:00,
2013-10-18 04:00:00,48.8,46.3,30.00,WSW,255,0.0,0.0,91,0.00,,,0.00,Wunderground v.1.15,2013-10-18 08:00:00,
2013-10-18 04:06:00,48.6,46.1,30.00,WSW,255,0.0,0.0,91,0.00,,,0.00,Wunderground v.1.15,2013-10-18 08:06:00,
2013-10-18 04:11:00,48.6,46.1,30.00,WSW,255,0.0,0.0,91,0.00,,,0.00,Wunderground v.1.15,2013-10-18 08:11:00,
2013-10-18 04:17:00,48.6,45.8,30.00,WSW,255,0.0,0.0,90,0.00,,,0.00,Wunderground v.1.15,2013-10-18 08:17:00,
2013-10-18 04:22:00,48.6,45.8,29.99,WSW,255,0.0,0.0,90,0.00,,,0.00,Wunderground v.1.15,2013-10-18 08:22:00,
2013-10-18 04:28:00,48.6,45.8,29.99,WSW,255,0.0,0.0,90,0.00,,,0.00,Wunderground v.1.15,2013-10-18 08:28:00,
2013-10-18 04:33:00,48.6,45.8,29.99,WSW,255,0.0,0.0,90,0.00,,,0.00,Wunderground v.1.15,2013-10-18 08:33:00,
2013-10-18 04:39:00,48.8,46.0,30.00,WSW,255,0.0,0.0,90,0.00,,,0.00,Wunderground v.1.15,2013-10-18 08:39:00,
2013-10-18 04:44:00,48.8,45.7,30.00,WSW,255,0.0,0.0,89,0.00,,,0.00,Wunderground v.1.15,2013-10-18 08:44:00,
2013-10-18 04:50:00,48.8,45.7,30.00,WSW,255,0.0,0.0,89,0.00,,,0.00,Wunderground v.1.15,2013-10-18 08:50:00,
2013-10-18 04:55:00,48.6,45.8,30.00,WSW,255,0.0,0.0,90,0.00,,,0.00,Wunderground v.1.15,2013-10-18 08:55:00,
2013-10-18 05:00:00,48.3,45.8,30.00,WSW,255,0.0,0.0,91,0.00,,,0.00,Wunderground v.1.15,2013-10-18 09:00:00,
2013-10-18 05:06:00,48.2,45.7,30.01,WSW,255,0.0,0.0,91,0.00,,,0.00,Wunderground v.1.15,2013-10-18 09:06:00,
2013-10-18 05:11:00,48.2,45.7,30.01,WSW,255,0.0,0.0,91,0.00,,,0.00,Wunderground v.1.15,2013-10-18 09:11:00,
2013-10-18 05:17:00,48.2,45.7,30.01,WSW,255,0.0,0.0,91,0.00,,,0.00,Wunderground v.1.15,2013-10-18 09:17:00,
2013-10-18 05:22:00,48.2,45.7,30.01,WSW,255,0.0,0.0,91,0.00,,,0.00,Wunderground v.1.15,2013-10-18 09:22:00,
2013-10-18 05:28:00,47.9,45.4,30.01,WSW,255,0.0,0.0,91,0.00,,,0.00,Wunderground v.1.15,2013-10-18 09:28:00,
2013-10-18 05:33:00,47.7,45.5,30.01,WSW,255,0.0,0.0,92,0.00,,,0.00,Wunderground v.1.15,2013-10-18 09:33:00,
2013-10-18 05:38:00,47.6,45.4,30.01,WSW,255,0.0,0.0,92,0.00,,,0.00,Wunderground v.1.15,2013-10-18 09:38:00,
2013-10-18 05:44:00,47.6,45.4,30.01,WSW,255,0.0,0.0,92,0.00,,,0.00,Wunderground v.1.15,2013-10-18 09:44:00,
2013-10-18 05:50:00,47.6,45.4,30.01,WSW,255,0.0,0.0,92,0.00,,,0.00,Wunderground v.1.15,2013-10-18 09:50:00,
2013-10-18 05:55:00,47.6,45.7,30.02,WSW,255,0.0,0.0,93,0.00,,,0.00,Wunderground v.1.15,2013-10-18 09:55:00,
2013-10-18 06:01:00,47.6,45.7,30.02,WSW,255,0.0,0.0,93,0.00,,,0.00,Wunderground v.1.15,2013-10-18 10:01:00,
2013-10-18 06:07:00,47.7,45.8,30.02,WSW,255,0.0,0.0,93,0.00,,,0.00,Wunderground v.1.15,2013-10-18 10:07:00,
2013-10-18 06:12:00,47.9,46.0,30.02,WSW,255,0.0,0.0,93,0.00,,,0.00,Wunderground v.1.15,2013-10-18 10:12:00,
2013-10-18 06:18:00,48.0,46.1,30.02,WSW,255,0.0,0.0,93,0.00,,,0.00,Wunderground v.1.15,2013-10-18 10:18:00,
2013-10-18 06:23:00,48.2,46.0,30.02,WSW,255,0.0,0.0,92,0.00,,,0.00,Wunderground v.1.15,2013-10-18 10:23:00,
2013-10-18 06:28:00,48.2,46.0,30.02,WSW,255,0.0,0.0,92,0.00,,,0.00,Wunderground v.1.15,2013-10-18 10:28:00,
2013-10-18 06:34:00,48.0,45.8,30.02,WSW,255,0.0,0.0,92,0.00,,,0.00,Wunderground v.1.15,2013-10-18 10:34:00,
2013-10-18 06:39:00,47.9,45.7,30.02,WSW,255,0.0,0.0,92,0.00,,,0.00,Wunderground v.1.15,2013-10-18 10:39:00,
2013-10-18 06:45:00,47.6,45.4,30.02,WSW,255,0.0,0.0,92,0.00,,,0.00,Wunderground v.1.15,2013-10-18 10:45:00,
2013-10-18 06:50:00,47.6,45.7,30.03,WSW,255,0.0,0.0,93,0.00,,,0.00,Wunderground v.1.15,2013-10-18 10:50:00,
2013-10-18 06:56:00,47.6,45.4,30.03,WSW,255,0.0,0.0,92,0.00,,,0.00,Wunderground v.1.15,2013-10-18 10:56:00,
2013-10-18 07:01:00,47.6,45.4,30.03,WSW,255,0.0,0.0,92,0.00,,,0.00,Wunderground v.1.15,2013-10-18 11:01:00,
2013-10-18 07:07:00,47.6,45.4,30.03,WSW,255,0.0,0.0,92,0.00,,,0.00,Wunderground v.1.15,2013-10-18 11:07:00,
2013-10-18 07:12:00,47.4,45.2,30.03,WSW,255,0.0,0.0,92,0.00,,,0.00,Wunderground v.1.15,2013-10-18 11:12:00,
2013-10-18 07:17:00,47.4,45.2,30.03,WSW,255,0.0,0.0,92,0.00,,,0.00,Wunderground v.1.15,2013-10-18 11:17:00,
2013-10-18 07:23:00,47.3,45.1,30.04,WSW,255,0.0,1.0,92,0.00,,,0.00,Wunderground v.1.15,2013-10-18 11:23:00,
2013-10-18 07:29:00,47.1,44.9,30.04,WSW,255,0.0,0.0,92,0.00,,,0.00,Wunderground v.1.15,2013-10-18 11:29:00,
2013-10-18 07:35:00,47.0,44.8,30.04,WSW,255,0.0,2.0,92,0.00,,,0.00,Wunderground v.1.15,2013-10-18 11:35:00,
2013-10-18 07:40:00,47.0,44.8,30.04,WSW,255,0.0,0.0,92,0.00,,,0.00,Wunderground v.1.15,2013-10-18 11:40:00,
2013-10-18 07:46:00,47.0,44.8,30.04,WSW,255,0.0,0.0,92,0.00,,,0.00,Wunderground v.1.15,2013-10-18 11:46:00,
2013-10-18 07:51:00,47.0,44.8,30.05,WSW,255,0.0,0.0,92,0.00,,,0.00,Wunderground v.1.15,2013-10-18 11:51:00,
2013-10-18 07:57:00,47.1,44.6,30.05,WSW,255,0.0,0.0,91,0.00,,,0.00,Wunderground v.1.15,2013-10-18 11:57:00,
2013-10-18 08:02:00,47.3,44.8,30.05,WSW,255,0.0,0.0,91,0.00,,,0.00,Wunderground v.1.15,2013-10-18 12:02:00,
2013-10-18 08:08:00,47.3,44.8,30.06,WSW,255,0.0,0.0,91,0.00,,,0.00,Wunderground v.1.15,2013-10-18 12:08:00,
2013-10-18 08:13:00,47.3,44.5,30.06,WSW,255,0.0,1.0,90,0.00,,,0.00,Wunderground v.1.15,2013-10-18 12:13:00,
2013-10-18 08:18:00,47.4,44.9,30.06,WSW,255,0.0,1.0,91,0.00,,,0.00,Wunderground v.1.15,2013-10-18 12:18:00,
2013-10-18 08:24:00,47.7,44.9,30.06,WSW,255,0.0,0.0,90,0.00,,,0.00,Wunderground v.1.15,2013-10-18 12:24:00,
2013-10-18 08:29:00,47.7,44.9,30.06,WSW,255,0.0,0.0,90,0.00,,,0.00,Wunderground v.1.15,2013-10-18 12:29:00,
2013-10-18 08:35:00,48.0,45.2,30.06,WSW,255,0.0,0.0,90,0.00,,,0.00,Wunderground v.1.15,2013-10-18 12:35:00,
2013-10-18 08:40:00,48.3,45.5,30.05,WSW,255,0.0,0.0,90,0.00,,,0.00,Wunderground v.1.15,2013-10-18 12:40:00,
2013-10-18 08:46:00,49.1,46.0,30.05,WSW,255,0.0,0.0,89,0.00,,,0.00,Wunderground v.1.15,2013-10-18 12:46:00,
2013-10-18 08:51:00,49.5,45.8,30.07,WSW,255,0.0,0.0,87,0.00,,,0.00,Wunderground v.1.15,2013-10-18 12:51:00,
2013-10-18 08:56:00,49.6,45.6,30.07,WSW,255,0.0,0.0,86,0.00,,,0.00,Wunderground v.1.15,2013-10-18 12:56:00,
2013-10-18 09:02:00,49.8,44.8,30.07,WSW,255,0.0,0.0,83,0.00,,,0.00,Wunderground v.1.15,2013-10-18 13:02:00,
2013-10-18 09:07:00,49.9,45.3,30.07,WSW,255,0.0,0.0,84,0.00,,,0.00,Wunderground v.1.15,2013-10-18 13:07:00,
2013-10-18 09:13:00,49.9,45.6,30.07,WSW,255,0.0,0.0,85,0.00,,,0.00,Wunderground v.1.15,2013-10-18 13:13:00,
2013-10-18 09:18:00,50.4,45.7,30.07,WSW,255,0.0,0.0,84,0.00,,,0.00,Wunderground v.1.15,2013-10-18 13:18:00,
2013-10-18 09:24:00,50.5,45.8,30.07,WSW,255,0.0,0.0,84,0.00,,,0.00,Wunderground v.1.15,2013-10-18 13:24:00,
2013-10-18 09:29:00,50.7,46.0,30.07,WSW,255,0.0,0.0,84,0.00,,,0.00,Wunderground v.1.15,2013-10-18 13:29:00,
2013-10-18 09:34:00,51.0,46.0,30.07,WSW,255,0.0,0.0,83,0.00,,,0.00,Wunderground v.1.15,2013-10-18 13:34:00,
2013-10-18 09:40:00,51.9,47.2,30.07,WSW,255,0.0,0.0,84,0.00,,,0.00,Wunderground v.1.15,2013-10-18 13:40:00,
2013-10-18 09:45:00,52.3,46.6,30.07,WSW,255,0.0,0.0,81,0.00,,,0.00,Wunderground v.1.15,2013-10-18 13:45:00,
2013-10-18 09:51:00,53.3,46.3,30.07,NE,53,0.0,0.0,77,0.00,,,0.00,Wunderground v.1.15,2013-10-18 13:51:00,
2013-10-18 09:56:00,53.9,47.5,30.07,NE,53,0.0,1.0,79,0.00,,,0.00,Wunderground v.1.15,2013-10-18 13:56:00,
2013-10-18 10:02:00,55.0,46.9,30.07,NE,56,0.0,3.0,74,0.00,,,0.00,Wunderground v.1.15,2013-10-18 14:02:00,
2013-10-18 10:07:00,55.6,46.3,30.08,NE,53,1.0,3.0,71,0.00,,,0.00,Wunderground v.1.15,2013-10-18 14:07:00,
2013-10-18 10:13:00,55.6,46.7,30.08,NE,53,1.0,3.0,72,0.00,,,0.00,Wunderground v.1.15,2013-10-18 14:13:00,
2013-10-18 10:18:00,56.3,47.8,30.08,NE,51,1.0,4.0,73,0.00,,,0.00,Wunderground v.1.15,2013-10-18 14:18:00,
2013-10-18 10:24:00,56.7,47.0,30.07,NE,51,0.0,1.0,70,0.00,,,0.00,Wunderground v.1.15,2013-10-18 14:24:00,
2013-10-18 10:29:00,56.5,45.7,30.07,NE,56,1.0,5.0,67,0.00,,,0.00,Wunderground v.1.15,2013-10-18 14:29:00,
2013-10-18 10:35:00,56.3,45.9,30.07,NE,38,2.0,5.0,68,0.00,,,0.00,Wunderground v.1.15,2013-10-18 14:35:00,
2013-10-18 10:40:00,56.3,45.9,30.08,NE,46,1.0,3.0,68,0.00,,,0.00,Wunderground v.1.15,2013-10-18 14:40:00,
2013-10-18 10:46:00,56.5,45.3,30.08,ENE,58,1.0,3.0,66,0.00,,,0.00,Wunderground v.1.15,2013-10-18 14:46:00,
2013-10-18 10:51:00,56.3,46.6,30.08,NE,47,1.0,1.0,70,0.00,,,0.00,Wunderground v.1.15,2013-10-18 14:51:00,
2013-10-18 10:57:00,56.2,46.2,30.08,NE,47,0.0,1.0,69,0.00,,,0.00,Wunderground v.1.15,2013-10-18 14:57:00,
2013-10-18 11:02:00,56.5,46.1,30.08,NE,48,0.0,2.0,68,0.00,,,0.00,Wunderground v.1.15,2013-10-18 15:02:00,
2013-10-18 11:08:00,57.0,46.1,30.07,NE,43,0.0,3.0,67,0.00,,,0.00,Wunderground v.1.15,2013-10-18 15:08:00,
2013-10-18 11:13:00,57.0,45.3,30.07,NNE,29,1.0,4.0,65,0.00,,,0.00,Wunderground v.1.15,2013-10-18 15:13:00,
2013-10-18 11:19:00,57.0,45.3,30.07,NE,43,2.0,2.0,65,0.00,,,0.00,Wunderground v.1.15,2013-10-18 15:19:00,
2013-10-18 11:24:00,57.5,44.6,30.07,NE,55,2.0,6.0,62,0.00,,,0.00,Wunderground v.1.15,2013-10-18 15:24:00,
2013-10-18 11:29:00,56.9,44.8,30.07,NNE,28,2.0,2.0,64,0.00,,,0.00,Wunderground v.1.15,2013-10-18 15:29:00,
2013-10-18 11:35:00,56.6,45.8,30.07,NNE,29,1.0,2.0,67,0.00,,,0.00,Wunderground v.1.15,2013-10-18 15:35:00,
2013-10-18 11:40:00,56.5,44.9,30.07,NE,47,0.0,0.0,65,0.00,,,0.00,Wunderground v.1.15,2013-10-18 15:40:00,
2013-10-18 11:46:00,56.2,45.4,30.07,NE,34,0.0,5.0,67,0.00,,,0.00,Wunderground v.1.15,2013-10-18 15:46:00,
2013-10-18 11:51:00,56.3,45.9,30.07,NE,37,0.0,2.0,68,0.00,,,0.00,Wunderground v.1.15,2013-10-18 15:51:00,
2013-10-18 11:57:00,56.2,45.4,30.07,NE,47,1.0,4.0,67,0.00,,,0.00,Wunderground v.1.15,2013-10-18 15:57:00,
2013-10-18 12:02:00,56.6,45.8,30.07,NE,41,2.0,4.0,67,0.00,,,0.00,Wunderground v.1.15,2013-10-18 16:02:00,
2013-10-18 12:08:00,57.2,46.7,30.06,NE,50,1.0,6.0,68,0.00,,,0.00,Wunderground v.1.15,2013-10-18 16:08:00,
2013-10-18 12:13:00,57.3,44.8,30.06,NE,47,2.0,4.0,63,0.00,,,0.00,Wunderground v.1.15,2013-10-18 16:13:00,
2013-10-18 12:19:00,58.3,47.4,30.06,NE,46,2.0,2.0,67,0.00,,,0.00,Wunderground v.1.15,2013-10-18 16:19:00,
2013-10-18 12:24:00,58.6,46.0,30.06,NE,46,1.0,5.0,63,0.00,,,0.00,Wunderground v.1.15,2013-10-18 16:24:00,
2013-10-18 12:30:00,58.9,47.2,30.06,ENE,60,0.0,6.0,65,0.00,,,0.00,Wunderground v.1.15,2013-10-18 16:30:00,
2013-10-18 12:35:00,58.7,45.3,30.06,NE,55,1.0,6.0,61,0.00,,,0.00,Wunderground v.1.15,2013-10-18 16:35:00,
2013-10-18 12:40:00,58.3,45.3,30.06,NE,46,2.0,5.0,62,0.00,,,0.00,Wunderground v.1.15,2013-10-18 16:40:00,
2013-10-18 12:46:00,58.0,45.9,30.06,NE,47,2.0,5.0,64,0.00,,,0.00,Wunderground v.1.15,2013-10-18 16:46:00,
2013-10-18 12:51:00,58.7,46.1,30.06,NE,39,0.0,6.0,63,0.00,,,0.00,Wunderground v.1.15,2013-10-18 16:51:00,
2013-10-18 12:57:00,59.3,45.4,30.06,NE,39,0.0,6.0,60,0.00,,,0.00,Wunderground v.1.15,2013-10-18 16:57:00,
2013-10-18 13:02:00,59.8,46.3,30.06,NNW,344,0.0,0.0,61,0.00,,,0.00,Wunderground v.1.15,2013-10-18 17:02:00,
2013-10-18 13:08:00,59.6,46.1,30.05,NNE,18,0.0,4.0,61,0.00,,,0.00,Wunderground v.1.15,2013-10-18 17:08:00,
2013-10-18 13:13:00,59.5,45.6,30.05,NE,53,1.0,4.0,60,0.00,,,0.00,Wunderground v.1.15,2013-10-18 17:13:00,
2013-10-18 13:19:00,59.8,45.9,30.05,NE,47,2.0,2.0,60,0.00,,,0.00,Wunderground v.1.15,2013-10-18 17:19:00,
2013-10-18 13:24:00,59.9,46.4,30.04,NE,47,1.0,2.0,61,0.00,,,0.00,Wunderground v.1.15,2013-10-18 17:24:00,
2013-10-18 13:30:00,59.6,46.1,30.04,NE,47,0.0,0.0,61,0.00,,,0.00,Wunderground v.1.15,2013-10-18 17:30:00,
2013-10-18 13:36:00,59.5,46.0,30.04,NE,46,1.0,6.0,61,0.00,,,0.00,Wunderground v.1.15,2013-10-18 17:36:00,
2013-10-18 13:39:00,59.3,46.3,30.04,NE,46,2.0,2.0,62,0.00,,,0.00,Wunderground v.1.15,2013-10-18 17:39:00,
2013-10-18 13:45:00,60.1,45.3,30.04,NNE,21,2.0,9.0,58,0.00,,,0.00,Wunderground v.1.15,2013-10-18 17:45:00,
2013-10-18 13:50:00,60.1,46.6,30.02,NNE,28,1.0,1.0,61,0.00,,,0.00,Wunderground v.1.15,2013-10-18 17:50:00,
2013-10-18 13:56:00,60.7,48.0,30.02,NE,43,0.0,2.0,63,0.00,,,0.00,Wunderground v.1.15,2013-10-18 17:56:00,
2013-10-18 14:01:00,61.0,46.1,30.02,NE,50,1.0,5.0,58,0.00,,,0.00,Wunderground v.1.15,2013-10-18 18:01:00,
2013-10-18 14:06:00,60.5,47.0,30.01,NE,48,2.0,5.0,61,0.00,,,0.00,Wunderground v.1.15,2013-10-18 18:06:00,
2013-10-18 14:12:00,60.4,46.0,30.01,NE,42,2.0,2.0,59,0.00,,,0.00,Wunderground v.1.15,2013-10-18 18:12:00,
2013-10-18 14:17:00,60.5,47.0,30.01,NE,42,0.0,3.0,61,0.00,,,0.00,Wunderground v.1.15,2013-10-18 18:17:00,
2013-10-18 14:23:00,61.2,46.8,30.01,NE,42,0.0,3.0,59,0.00,,,0.00,Wunderground v.1.15,2013-10-18 18:23:00,
2013-10-18 14:28:00,60.7,45.4,30.01,NE,52,1.0,4.0,57,0.00,,,0.00,Wunderground v.1.15,2013-10-18 18:28:00,
2013-10-18 14:34:00,61.5,47.0,30.01,NE,52,1.0,1.0,59,0.00,,,0.00,Wunderground v.1.15,2013-10-18 18:34:00,
2013-10-18 14:39:00,62.1,47.1,30.00,NE,52,0.0,0.0,58,0.00,,,0.00,Wunderground v.1.15,2013-10-18 18:39:00,
2013-10-18 14:45:00,61.8,46.9,30.00,NE,52,0.0,4.0,58,0.00,,,0.00,Wunderground v.1.15,2013-10-18 18:45:00,
2013-10-18 14:51:00,62.3,46.9,30.00,NE,35,0.0,2.0,57,0.00,,,0.00,Wunderground v.1.15,2013-10-18 18:51:00,
2013-10-18 14:57:00,62.6,47.1,30.00,NE,35,0.0,4.0,57,0.00,,,0.00,Wunderground v.1.15,2013-10-18 18:57:00,
2013-10-18 15:02:00,62.1,47.1,30.00,NE,35,0.0,0.0,58,0.00,,,0.00,Wunderground v.1.15,2013-10-18 19:02:00,
2013-10-18 15:08:00,62.1,47.1,29.99,NE,41,0.0,5.0,58,0.00,,,0.00,Wunderground v.1.15,2013-10-18 19:08:00,
2013-10-18 15:13:00,62.0,47.0,29.99,NE,41,0.0,0.0,58,0.00,,,0.00,Wunderground v.1.15,2013-10-18 19:13:00,
2013-10-18 15:18:00,61.3,46.8,29.99,NE,41,0.0,1.0,59,0.00,,,0.00,Wunderground v.1.15,2013-10-18 19:18:00,
2013-10-18 15:24:00,61.6,48.0,29.99,NE,41,0.0,0.0,61,0.00,,,0.00,Wunderground v.1.15,2013-10-18 19:24:00,
2013-10-18 15:30:00,61.6,48.4,29.99,NE,41,0.0,0.0,62,0.00,,,0.00,Wunderground v.1.15,2013-10-18 19:30:00,
2013-10-18 15:35:00,61.8,46.9,29.99,NE,41,0.0,0.0,58,0.00,,,0.00,Wunderground v.1.15,2013-10-18 19:35:00,
2013-10-18 15:40:00,62.0,47.5,29.99,NE,43,1.0,6.0,59,0.00,,,0.00,Wunderground v.1.15,2013-10-18 19:40:00,
2013-10-18 15:46:00,62.0,48.4,29.99,NE,48,1.0,6.0,61,0.00,,,0.00,Wunderground v.1.15,2013-10-18 19:46:00,
2013-10-18 15:51:00,62.0,47.5,29.99,NE,48,0.0,1.0,59,0.00,,,0.00,Wunderground v.1.15,2013-10-18 19:51:00,
2013-10-18 15:56:00,61.3,47.3,29.99,NE,48,0.0,1.0,60,0.00,,,0.00,Wunderground v.1.15,2013-10-18 19:56:00,
2013-10-18 16:02:00,61.5,48.4,29.99,NE,48,0.0,0.0,62,0.00,,,0.00,Wunderground v.1.15,2013-10-18 20:02:00,
2013-10-18 16:07:00,61.3,48.2,29.99,NE,48,0.0,0.0,62,0.00,,,0.00,Wunderground v.1.15,2013-10-18 20:07:00,
2013-10-18 16:13:00,61.5,49.2,29.99,NE,48,0.0,0.0,64,0.00,,,0.00,Wunderground v.1.15,2013-10-18 20:13:00,
2013-10-18 16:18:00,61.8,49.9,29.99,NE,48,0.0,0.0,65,0.00,,,0.00,Wunderground v.1.15,2013-10-18 20:18:00,
2013-10-18 16:23:00,62.1,48.5,29.98,NE,48,0.0,1.0,61,0.00,,,0.00,Wunderground v.1.15,2013-10-18 20:23:00,
2013-10-18 16:29:00,62.1,49.4,29.98,NE,48,0.0,0.0,63,0.00,,,0.00,Wunderground v.1.15,2013-10-18 20:29:00,
2013-10-18 16:34:00,62.0,48.8,29.98,NE,48,0.0,0.0,62,0.00,,,0.00,Wunderground v.1.15,2013-10-18 20:34:00,
2013-10-18 16:40:00,61.6,47.6,29.98,NE,48,0.0,0.0,60,0.00,,,0.00,Wunderground v.1.15,2013-10-18 20:40:00,
2013-10-18 16:45:00,61.5,48.4,29.98,NE,48,0.0,0.0,62,0.00,,,0.00,Wunderground v.1.15,2013-10-18 20:45:00,
2013-10-18 16:51:00,61.3,48.2,29.98,NE,48,0.0,0.0,62,0.00,,,0.00,Wunderground v.1.15,2013-10-18 20:51:00,
2013-10-18 16:56:00,61.0,47.0,29.98,NE,48,0.0,0.0,60,0.00,,,0.00,Wunderground v.1.15,2013-10-18 20:56:00,
2013-10-18 17:02:00,60.9,47.8,29.98,NE,48,0.0,0.0,62,0.00,,,0.00,Wunderground v.1.15,2013-10-18 21:02:00,
2013-10-18 17:07:00,60.5,45.2,29.98,NE,48,0.0,0.0,57,0.00,,,0.00,Wunderground v.1.15,2013-10-18 21:07:00,
2013-10-18 17:13:00,60.4,45.5,29.98,NE,48,0.0,0.0,58,0.00,,,0.00,Wunderground v.1.15,2013-10-18 21:13:00,
2013-10-18 17:19:00,60.2,45.4,29.98,NE,48,0.0,0.0,58,0.00,,,0.00,Wunderground v.1.15,2013-10-18 21:19:00,
2013-10-18 17:24:00,60.1,44.8,29.98,NE,48,0.0,0.0,57,0.00,,,0.00,Wunderground v.1.15,2013-10-18 21:24:00,
2013-10-18 17:30:00,60.1,47.0,29.98,NE,48,0.0,0.0,62,0.00,,,0.00,Wunderground v.1.15,2013-10-18 21:30:00,
2013-10-18 17:35:00,59.9,45.5,29.98,NE,48,0.0,0.0,59,0.00,,,0.00,Wunderground v.1.15,2013-10-18 21:35:00,
2013-10-18 17:41:00,59.6,45.7,29.98,NE,48,0.0,0.0,60,0.00,,,0.00,Wunderground v.1.15,2013-10-18 21:41:00,
2013-10-18 17:46:00,59.5,46.5,29.98,NE,48,0.0,0.0,62,0.00,,,0.00,Wunderground v.1.15,2013-10-18 21:46:00,
2013-10-18 17:51:00,59.2,47.8,29.99,NE,48,0.0,0.0,66,0.00,,,0.00,Wunderground v.1.15,2013-10-18 21:51:00,
2013-10-18 17:57:00,59.0,47.2,29.99,NE,48,0.0,0.0,65,0.00,,,0.00,Wunderground v.1.15,2013-10-18 21:57:00,
2013-10-18 18:02:00,59.0,47.2,29.99,NE,48,0.0,0.0,65,0.00,,,0.00,Wunderground v.1.15,2013-10-18 22:02:00,
2013-10-18 18:08:00,58.7,47.0,29.98,NE,48,0.0,0.0,65,0.00,,,0.00,Wunderground v.1.15,2013-10-18 22:08:00,
2013-10-18 18:13:00,58.4,48.3,29.98,NE,48,0.0,0.0,69,0.00,,,0.00,Wunderground v.1.15,2013-10-18 22:13:00,
2013-10-18 18:19:00,58.0,49.0,29.98,NE,48,0.0,0.0,72,0.00,,,0.00,Wunderground v.1.15,2013-10-18 22:19:00,
2013-10-18 18:24:00,57.5,48.5,29.98,NE,48,0.0,0.0,72,0.00,,,0.00,Wunderground v.1.15,2013-10-18 22:24:00,
2013-10-18 18:30:00,57.2,49.0,29.98,NE,48,0.0,0.0,74,0.00,,,0.00,Wunderground v.1.15,2013-10-18 22:30:00,
2013-10-18 18:35:00,57.0,48.4,29.98,NE,48,0.0,0.0,73,0.00,,,0.00,Wunderground v.1.15,2013-10-18 22:35:00,
2013-10-18 18:41:00,56.9,48.7,29.98,NE,48,0.0,0.0,74,0.00,,,0.00,Wunderground v.1.15,2013-10-18 22:41:00,
2013-10-18 18:46:00,56.6,48.8,29.98,NE,48,0.0,0.0,75,0.00,,,0.00,Wunderground v.1.15,2013-10-18 22:46:00,
2013-10-18 18:52:00,56.3,48.5,29.99,NE,48,0.0,0.0,75,0.00,,,0.00,Wunderground v.1.15,2013-10-18 22:52:00,
2013-10-18 18:57:00,56.0,48.5,29.99,NE,48,0.0,0.0,76,0.00,,,0.00,Wunderground v.1.15,2013-10-18 22:57:00,
2013-10-18 19:03:00,55.7,47.9,29.99,NE,48,0.0,0.0,75,0.00,,,0.00,Wunderground v.1.15,2013-10-18 23:03:00,
2013-10-18 19:08:00,55.6,47.8,29.99,NE,48,0.0,0.0,75,0.00,,,0.00,Wunderground v.1.15,2013-10-18 23:08:00,
2013-10-18 19:13:00,55.3,48.2,29.99,NE,48,0.0,0.0,77,0.00,,,0.00,Wunderground v.1.15,2013-10-18 23:13:00,
2013-10-18 19:19:00,55.0,47.9,29.99,NE,48,0.0,0.0,77,0.00,,,0.00,Wunderground v.1.15,2013-10-18 23:19:00,
2013-10-18 19:24:00,54.7,48.0,29.99,NE,48,0.0,0.0,78,0.00,,,0.00,Wunderground v.1.15,2013-10-18 23:24:00,
2013-10-18 19:30:00,54.5,47.1,29.99,NE,48,0.0,0.0,76,0.00,,,0.00,Wunderground v.1.15,2013-10-18 23:30:00,
2013-10-18 19:36:00,54.5,47.1,29.99,NE,48,0.0,0.0,76,0.00,,,0.00,Wunderground v.1.15,2013-10-18 23:36:00,
2013-10-18 19:42:00,54.5,47.8,29.99,NE,48,0.0,0.0,78,0.00,,,0.00,Wunderground v.1.15,2013-10-18 23:42:00,
2013-10-18 19:47:00,54.4,48.0,29.99,NE,48,0.0,0.0,79,0.00,,,0.00,Wunderground v.1.15,2013-10-18 23:47:00,
2013-10-18 19:53:00,54.2,47.5,29.99,NE,48,0.0,0.0,78,0.00,,,0.00,Wunderground v.1.15,2013-10-18 23:53:00,
2013-10-18 19:59:00,54.2,47.5,29.99,NE,48,0.0,0.0,78,0.00,,,0.00,Wunderground v.1.15,2013-10-18 23:59:00,
2013-10-18 20:04:00,54.1,47.4,29.99,NE,48,0.0,0.0,78,0.00,,,0.00,Wunderground v.1.15,2013-10-19 00:04:00,
2013-10-18 20:10:00,54.1,47.4,30.00,NE,48,0.0,0.0,78,0.00,,,0.00,Wunderground v.1.15,2013-10-19 00:10:00,
2013-10-18 20:16:00,53.9,47.5,30.00,NE,48,0.0,0.0,79,0.00,,,0.00,Wunderground v.1.15,2013-10-19 00:16:00,
2013-10-18 20:21:00,53.9,47.2,30.00,NE,48,0.0,0.0,78,0.00,,,0.00,Wunderground v.1.15,2013-10-19 00:21:00,
2013-10-18 20:26:00,53.9,47.2,30.00,NE,48,0.0,0.0,78,0.00,,,0.00,Wunderground v.1.15,2013-10-19 00:26:00,
2013-10-18 20:32:00,53.9,47.5,30.00,NE,48,0.0,0.0,79,0.00,,,0.00,Wunderground v.1.15,2013-10-19 00:32:00,
2013-10-18 20:38:00,53.8,47.1,30.00,NE,48,0.0,0.0,78,0.00,,,0.00,Wunderground v.1.15,2013-10-19 00:38:00,
2013-10-18 20:43:00,53.8,47.4,30.00,NE,48,0.0,0.0,79,0.00,,,0.00,Wunderground v.1.15,2013-10-19 00:43:00,
2013-10-18 20:48:00,53.6,47.2,30.00,NE,48,0.0,0.0,79,0.00,,,0.00,Wunderground v.1.15,2013-10-19 00:48:00,
2013-10-18 20:54:00,53.6,47.6,30.00,NE,48,0.0,0.0,80,0.00,,,0.00,Wunderground v.1.15,2013-10-19 00:54:00,
2013-10-18 20:59:00,53.6,47.9,30.00,NE,48,0.0,0.0,81,0.00,,,0.00,Wunderground v.1.15,2013-10-19 00:59:00,
2013-10-18 21:05:00,53.5,47.8,30.00,NE,48,0.0,0.0,81,0.00,,,0.00,Wunderground v.1.15,2013-10-19 01:05:00,
2013-10-18 21:10:00,53.5,47.8,30.00,NE,48,0.0,0.0,81,0.00,,,0.00,Wunderground v.1.15,2013-10-19 01:10:00,
2013-10-18 21:16:00,53.3,47.6,30.00,NE,48,0.0,2.0,81,0.00,,,0.00,Wunderground v.1.15,2013-10-19 01:16:00,
2013-10-18 21:21:00,53.3,47.6,30.00,NE,48,0.0,0.0,81,0.00,,,0.00,Wunderground v.1.15,2013-10-19 01:21:00,
2013-10-18 21:26:00,53.3,47.6,30.00,NE,48,0.0,1.0,81,0.00,,,0.00,Wunderground v.1.15,2013-10-19 01:26:00,
2013-10-18 21:32:00,53.2,47.8,30.00,NE,48,0.0,0.0,82,0.00,,,0.00,Wunderground v.1.15,2013-10-19 01:32:00,
2013-10-18 21:38:00,53.1,48.1,30.01,NE,48,0.0,2.0,83,0.00,,,0.00,Wunderground v.1.15,2013-10-19 01:38:00,
2013-10-18 21:43:00,52.9,47.9,30.01,NE,48,0.0,1.0,83,0.00,,,0.00,Wunderground v.1.15,2013-10-19 01:43:00,
2013-10-18 21:49:00,52.9,47.9,30.01,NE,48,0.0,0.0,83,0.00,,,0.00,Wunderground v.1.15,2013-10-19 01:49:00,
2013-10-18 21:54:00,52.8,47.8,30.01,NE,48,0.0,2.0,83,0.00,,,0.00,Wunderground v.1.15,2013-10-19 01:54:00,
2013-10-18 22:00:00,52.8,47.8,30.01,NE,48,0.0,0.0,83,0.00,,,0.00,Wunderground v.1.15,2013-10-19 02:00:00,
2013-10-18 22:05:00,52.9,47.9,30.00,NE,48,0.0,0.0,83,0.00,,,0.00,Wunderground v.1.15,2013-10-19 02:05:00,
2013-10-18 22:11:00,52.9,47.9,30.00,NE,48,0.0,1.0,83,0.00,,,0.00,Wunderground v.1.15,2013-10-19 02:11:00,
2013-10-18 22:16:00,53.1,47.7,30.00,NE,39,0.0,1.0,82,0.00,,,0.00,Wunderground v.1.15,2013-10-19 02:16:00,
2013-10-18 22:22:00,53.2,47.8,30.00,NE,37,0.0,0.0,82,0.00,,,0.00,Wunderground v.1.15,2013-10-19 02:22:00,
2013-10-18 22:27:00,53.1,47.7,30.00,NE,37,0.0,0.0,82,0.00,,,0.00,Wunderground v.1.15,2013-10-19 02:27:00,
2013-10-18 22:33:00,52.8,47.8,30.00,NW,318,0.0,3.0,83,0.00,,,0.00,Wunderground v.1.15,2013-10-19 02:33:00,
2013-10-18 22:39:00,52.5,47.5,30.00,NW,317,0.0,2.0,83,0.00,,,0.00,Wunderground v.1.15,2013-10-19 02:39:00,
2013-10-18 22:44:00,52.5,47.8,30.00,NW,317,0.0,2.0,84,0.00,,,0.00,Wunderground v.1.15,2013-10-19 02:44:00,
2013-10-18 22:50:00,52.5,47.8,30.00,NW,317,0.0,0.0,84,0.00,,,0.00,Wunderground v.1.15,2013-10-19 02:50:00,
2013-10-18 22:55:00,52.3,47.6,30.00,NW,317,0.0,1.0,84,0.00,,,0.00,Wunderground v.1.15,2013-10-19 02:55:00,
2013-10-18 23:01:00,52.3,47.3,30.00,NW,316,1.0,1.0,83,0.00,,,0.00,Wunderground v.1.15,2013-10-19 03:01:00,
2013-10-18 23:06:00,52.3,47.3,30.01,NW,316,0.0,1.0,83,0.00,,,0.00,Wunderground v.1.15,2013-10-19 03:06:00,
2013-10-18 23:12:00,52.5,47.5,30.01,NW,316,0.0,2.0,83,0.00,,,0.00,Wunderground v.1.15,2013-10-19 03:12:00,
2013-10-18 23:17:00,52.5,47.5,30.01,NW,309,1.0,2.0,83,0.00,,,0.00,Wunderground v.1.15,2013-10-19 03:17:00,
2013-10-18 23:23:00,52.3,47.3,30.01,NW,309,1.0,3.0,83,0.00,,,0.00,Wunderground v.1.15,2013-10-19 03:23:00,
2013-10-18 23:28:00,52.2,47.5,30.01,NW,309,1.0,3.0,84,0.00,,,0.00,Wunderground v.1.15,2013-10-19 03:28:00,
2013-10-18 23:34:00,52.0,47.3,30.01,NW,309,0.0,1.0,84,0.00,,,0.00,Wunderground v.1.15,2013-10-19 03:34:00,
2013-10-18 23:39:00,52.2,47.2,30.01,NW,309,0.0,0.0,83,0.00,,,0.00,Wunderground v.1.15,2013-10-19 03:39:00,
2013-10-18 23:45:00,52.3,47.3,30.01,NW,309,0.0,0.0,83,0.00,,,0.00,Wunderground v.1.15,2013-10-19 03:45:00,
2013-10-18 23:50:00,52.3,47.3,30.00,NW,309,0.0,0.0,83,0.00,,,0.00,Wunderground v.1.15,2013-10-19 03:50:00,
2013-10-18 23:56:00,52.3,47.3,30.00,NW,309,0.0,0.0,83,0.00,,,0.00,Wunderground v.1.15,2013-10-19 03:56:00,